www.pogodaiklimat.ru

Погода и климат >> Архив погоды >> Беларусь >> Столбцы


ПОГОДА в Столбцах

  • Прогноз погоды в Столбцах
  • Монитор погоды в Столбцах

АРХИВ ПОГОДЫ в Столбцах

Время (UTC), дата Ветер
(напр.,м/с)
 
Видим.   Явления Облачность Т
(С)
Тd
(С)
f
(%)
Тe
(С)
Тes
(С)
Комфортность P
(гПа)
Po
(гПа)
Тmin
(С)
Tmax
(С)
R
(мм)
R24
(мм)
S
(см)
21 18.08 В 1 н/о н/о +18.0 +12.7 71 +19 +19 1014.0 991.7
00 19.08 штиль 0 н/о н/о +16.5 +12.8 79 +16 +16 1014.0 991.6
03 19.08 В 1 н/о н/о +15.3 +12.6 84 +16 +16 1014.0 991.5 +15.3
06 19.08 ЮВ 1 7000 м дымка 8/0
[Ac trans Ci fib]
+19.9 +14.7 72 +23 +23 комфорт 1015.0 992.8 +15.2
09 19.08 ЮВ 2 12 км 3/0
[Ci sp]
+27.2 +15.9 50 +30 +38 душно 1015.0 993.4
12 19.08 Ю 2 18 км 4/0
[Cs]
+29.5 +16.3 45 +33 +40 душно 1015.0 993.6
15 19.08 ЮВ 1 16 км 3/0
[Ci sp]
+29.0 +17.2 49 +33 +35 очень
душно
1015.0 993.5
18 19.08 ЮВ 1 10 км 9/4 600 м
[Cb calv Cs]
+24.4 +18.1 68 +29 +29 душно 1016.0 994.2 +30.0
21 19.08 штиль 0 н/о н/о +22.5 +17.6 74 +28 +28 душно 1017.0 995.0
00 20.08 ЮЗ 1 н/о н/о +18.0 +17.2 95 +19 +19 1020.0 997.6
03 20.08 В 2 н/о н/о +17.6 +17.1 97 +18 +18 1019.0 996.6 +17.6
06 20.08 Ю 2 9000 м дымка 9/9 750 м
[Cb calv]
+18.2 +17.9 98 +19 +19 1022.0 999.6 +17.3 15
09 20.08 ЮЗ 1 8000 м дымка {ливн. осадки} 8/5 600 м
[Cb calv Ci fib]
+21.5 +17.7 79 +26 +26 душно 1022.0 999.8
12 20.08 ЮЗ 1 15 км {ливн. осадки} 6/6 1000 м
[Cu hum]
+24.4 +17.4 65 +28 +33 душно 1021.7 1001.8
15 20.08 СЗ 1 17 км 6/4 1000 м
[Cu med, cong Ci fib]
+24.2 +17.7 67 +28 +29 душно 1022.0 1000.0
18 20.08 штиль 0 9000 м дымка 6/0
[Ci fib]
+21.5 +17.9 80 +26 +26 душно 1023.0 1000.8 +24.9 0.7
21 20.08 штиль 0 н/о н/о +19.6 +17.9 90 +22 +22 комфорт 1023.0 1000.7
00 21.08 штиль 0 н/о н/о +18.7 +17.9 95 +20 +20 1023.0 1000.6
03 21.08 штиль 0 н/о н/о +18.0 +17.5 97 +18 +18 1021.0 998.6 +17.9
06 21.08 В 3 8000 м дымка 8/8 600 м
[Cb calv]
+20.7 +18.3 86 +25 +25 комфорт 1020.0 997.8 +17.9
09 21.08 ЮВ 2 12 км 9/9 570 м
[Cb calv]
+24.2 +17.7 67 +28 +28 душно 1018.0 996.1
12 21.08 Ю 4 15 км 6/6 1000 м
[Cu med, cong]
+29.7 +14.2 39 +32 +34 душно 1017.0 995.5
15 21.08 З 4-10
{13}
14 км 8/8 480 м
[Cb calv]
+21.5 +16.9 75 +25 +25 комфорт 1020.0 997.9
18 21.08 З 5 7000 м дымка 9/9 600 м
[Cb calv]
+15.4 +12.7 84 +14 +14 1023.0 1000.3 +29.9
21 21.08 СЗ 3 н/о н/о +14.8 +12.3 85 +14 +14 1025.0 1002.2
00 22.08 З 2 н/о н/о +12.7 +11.3 91 +12 +12 1027.0 1004.0
03 22.08 З 1 н/о н/о +11.8 +11.0 95 +12 +12 1028.0 1004.9 +11.4
06 22.08 СЗ 2 9000 м дымка 9/9 480 м
[Cb calv]
+13.2 +12.1 93 +12 +12 1029.0 1006.0 +11.4
09 22.08 СЗ 1 10 км 6/6 600 м
[Cu med, cong]
+18.4 +11.9 66 +20 +25 1029.0 1006.4
12 22.08 СЗ 2 17 км 3/3 1000 м
[Cu med, cong]
+21.3 +10.7 51 +23 +30 комфорт 1029.0 1006.6
15 22.08 СЗ 1 17 км 4/4 1000 м
[Cu med, cong]
+20.7 +9.6 49 +23 +25 комфорт 1028.0 1005.6
18 22.08 штиль 0 10 км 6/0
[Ci fib]
+16.7 +11.0 69 +17 +17 1029.0 1006.3 +21.7
21 22.08 штиль 0 н/о н/о +13.0 +11.4 90 +12 +12 1030.0 1006.9
00 23.08 штиль 0 н/о н/о +10.8 +10.0 95 +10 +10 1030.0 1006.8
03 23.08 штиль 0 н/о н/о +9.0 +8.5 97 +8 +8 1031.0 1007.6 +8.9
06 23.08 штиль 0 7000 м дымка ясно +14.8 +11.4 80 +15 +20 1031.0 1008.1 +8.4
09 23.08 СВ 1 12 км 4/4 1000 м
[Cu hum]
+20.6 +9.8 50 +23 +32 комфорт 1031.0 1008.5
12 23.08 штиль 0 15 км 4/4 1000 м
[Cu hum]
+21.8 +8.3 42 +23 +32 комфорт 1029.0 1006.6
15 23.08 СЗ 1 15 км ясно +22.1 +7.5 39 +23 +26 комфорт 1028.0 1005.7
18 23.08 штиль 0 15 км 3/0
[Ci fib]
+17.6 +10.5 63 +18 +18 1028.0 1005.3 +23.5
21 23.08 штиль 0 н/о н/о +13.1 +11.5 90 +13 +13 1029.0 1006.0
00 24.08 штиль 0 н/о н/о +10.8 +9.9 94 +10 +10 1029.0 1005.8
03 24.08 штиль 0 н/о н/о +9.3 +8.5 95 +8 +8 1029.0 1005.7 +9.2
06 24.08 штиль 0 9000 м дымка ясно +15.6 +10.8 73 +15 +20 1029.0 1006.2 +9.1
09 24.08 ЮЗ 1 15 км ясно +22.4 +9.9 45 +24 +37 комфорт 1028.0 1005.7
12 24.08 З 1 17 км ясно +24.0 +9.6 40 +25 +36 комфорт 1027.0 1004.8
15 24.08 З 2 17 км ясно +24.0 +9.9 41 +25 +27 комфорт 1026.0 1003.9
18 24.08 штиль 0 10 км ясно +19.4 +10.9 58 +20 +20 1026.0 1003.5 +25.1
21 24.08 штиль 0 н/о н/о +14.7 +12.4 86 +14 +14 1027.0 1004.2
00 25.08 штиль 0 н/о н/о +12.4 +11.3 93 +12 +12 1028.0 1004.9
03 25.08 штиль 0 н/о н/о +11.2 +10.3 94 +10 +10 1028.0 1004.8 +11.1
06 25.08 штиль 0 8000 м дымка 10 баллов +17.0 +12.3 74 +17 +17 1028.0 1005.3 +10.8
09 25.08 штиль 0 10 км 3 балла +25.0 +11.5 43 +26 +36 жарко 1028.0 1005.9
12 25.08 штиль 0 10 км 6 баллов +27.0 +11.8 39 +28 +33 жарко 1027.0 1005.1
15 25.08 штиль 0 10 км 6 баллов +25.0 +12.6 46 +27 +28 жарко 1026.0 1004.0
18 25.08 штиль 0 10 км ясно +20.3 +14.9 71 +23 +23 комфорт 1027.0 1004.6 +27.3

 

Местоположение метеостанции Столбцы (Минская область, Беларусь): широта 53.48 долгота 26.73 высота над уровнем моря 190 м.

В архиве по умолчанию представлена погода в Столбцах за последнюю неделю. Архивные данные за месяц целиком и за предыдущие месяцы, начиная с января 2011 года, Вы можете получить, выбрав интересующий диапазон дат из раскрывающегося списка и нажав кнопку "Ввод!".


*Определитесь, кто Вы:
робот инопланетянин человек

Внимание! Время в таблицах - всемирное. Для получения местного времени необходимо прибавить поправку, которая равна 3 ч.

Смотрите также архив погоды в соседних городах и на ближайших метеорологических станциях:

Погода в Новогрудке (Гродненская область, Беларусь) (60 км)
Погода в Барановичах (Брестская область, Беларусь) (64 км)
Погода в Воложине (Минская область, Беларусь) (69 км)
Погода в Слуцке (Минская область, Беларусь) (74 км)
Погода в Минске (город Минск, Беларусь) (83 км)
Погода в Ганцевичах (Брестская область, Беларусь) (83 км)
Погода в Марьиной Горке (Минская область, Беларусь) (93 км)
Погода в Лиде (Гродненская область, Беларусь) (104 км)
Погода в Вилейке (Минская область, Беларусь) (116 км)
Погода в Ошмянах (Гродненская область, Беларусь) (118 км)

Пояснения к столбцам:

Ветер - указаны скорость ветра в м/с - средняя за 10 мин, порывы в срок и между сроками (в фигурных скобках) и направление, откуда дует ветер: С - северный, СВ - северо-восточный, В - восточный, ЮВ - юго-восточный, Ю - южный, ЮЗ - юго-западный, З - западный, СЗ - северо-западный.
Видимость - горизонтальная дальность видимости в метрах или километрах. При видимости от 1 до 10 км при отсутствии осадков обычно наблюдается дымка, при ухудшении видимости до 1 км и менее - туман. В сухую погоду видимость может ухудшаться дымом, пылью или мглою.
Явления - указаны атмосферные явления, наблюдавшиеся в срок или в последний час перед сроком; фигурными скобками обозначены явления, наблюдавшиеся между сроками (за 1-3 часа до срока); квадратными скобками обозначены град или гололедные отложения с указанием их диаметра в мм.
Облачность - указаны через наклонную черту общая и нижняя облачность в баллах и высота нижней границы облаков в метрах; квадратными скобками обозначены формы облаков: Ci - перистые, Cs - перисто-слоистые, Cc - перисто-кучевые, Ac - высококучевые, As - высокослоистые, Sc - слоисто-кучевые, Ns - слоисто-дождевые, Cu - кучевые, Cb - кучево-дождевые. Подробнее классификацию облаков см. в Атласе облаков (PDF).
T - Температура воздуха - температура, измеренная на высоте 2 м над землей.
Td - Температура точки росы - температура, при понижении до которой содержащийся в воздухе водяной пар достигнет насыщения.
f - Относительная влажность воздуха - влажноcть воздуха, измеренная на высоте 2 м над землей.
Te - Эффективная температура - температура, которую ощущает одетый по сезону человек в тени. Характеристика душности погоды. При расчете учитывается влияние влажности воздуха и скорости ветра на теплоощущения человека.
Tes - Эффективная температура на солнце - температура, которую ощущает человек, с поправкой на солнечный нагрев. Характеристика знойности погоды. Зависит от высоты солнца над горизонтом, облачности и скорости ветра. Ночью, в пасмурную погоду, а также при ветре 12 м/с и более поправка равна нулю.
P - Атмосферное давление - приведенное к уровню моря атмосферное давление.
Po - Атмосферное давление - измеренное на уровне метеостанции атмосферное давление.
Tmin - Минимальная температура - минимум температуры воздуха на высоте 2 м над землей.
Tmax - Максимальная температура - максимум температуры воздуха на высоте 2 м над землей.
R - Количество осадков - Количество выпавших осадков за период времени, мм. При наведении курсора мыши на число - период времени, за который выпало указанное количество осадков.
R24 - Количество осадков - Количество выпавших осадков за 24 часа, мм.
S - Снежный покров - Высота снежного покрова, см. При наведении курсора мыши на число - состояние снежного покрова и степень покрытия местности в баллах.